TimeEDT,TemperatureF,Dew PointF,Humidity,Sea Level PressureIn,VisibilityMPH,Wind Direction,Wind SpeedMPH,Gust SpeedMPH,PrecipitationIn,Events,Conditions,WindDirDegrees,DateUTC
12:05 AM,32.0,30.2,93,30.10,7.0,Calm,Calm,-,N/A,,Overcast,0,2011-10-30 04:05:00
12:12 AM,32.0,30.2,93,30.10,7.0,Calm,Calm,-,N/A,,Overcast,0,2011-10-30 04:12:00
12:30 AM,33.8,32.0,93,30.10,5.0,Calm,Calm,-,N/A,,Overcast,0,2011-10-30 04:30:00
12:51 AM,33.1,32.0,96,30.17,6.0,Calm,Calm,-,N/A,,Overcast,0,2011-10-30 04:51:00
1:00 AM,33.8,32.0,93,30.10,8.0,Calm,Calm,-,N/A,,Overcast,0,2011-10-30 05:00:00
1:51 AM,33.1,32.0,96,30.19,6.0,Calm,Calm,-,N/A,,Overcast,0,2011-10-30 05:51:00
2:51 AM,32.0,30.9,96,30.19,5.0,Calm,Calm,-,N/A,,Overcast,0,2011-10-30 06:51:00
3:51 AM,33.1,32.0,96,30.20,4.0,Calm,Calm,-,N/A,,Overcast,0,2011-10-30 07:51:00
4:00 AM,32.0,30.2,93,30.14,4.0,Calm,Calm,-,N/A,,Overcast,0,2011-10-30 08:00:00
4:12 AM,32.0,30.2,93,30.15,4.0,Calm,Calm,-,N/A,,Overcast,0,2011-10-30 08:12:00
4:34 AM,32.0,30.2,93,30.16,1.8,Calm,Calm,-,N/A,,Overcast,0,2011-10-30 08:34:00
4:46 AM,32.0,32.0,100,30.16,0.5,Calm,Calm,-,N/A,Fog,Fog,0,2011-10-30 08:46:00
4:51 AM,32.0,30.9,96,30.23,0.2,Calm,Calm,-,N/A,Fog,Fog,0,2011-10-30 08:51:00
5:38 AM,30.2,30.2,100,30.17,0.2,Calm,Calm,-,N/A,Fog,Light Freezing Fog,0,2011-10-30 09:38:00
5:51 AM,30.0,30.0,100,30.25,0.2,Calm,Calm,-,N/A,Fog,Light Freezing Fog,0,2011-10-30 09:51:00
6:11 AM,30.2,30.2,100,30.18,0.2,Calm,Calm,-,N/A,Fog,Light Freezing Fog,0,2011-10-30 10:11:00
6:35 AM,28.4,28.4,100,30.20,0.2,SW,3.5,-,N/A,Fog,Light Freezing Fog,230,2011-10-30 10:35:00
6:46 AM,28.4,28.4,100,30.20,0.2,WSW,3.5,-,N/A,Fog,Light Freezing Fog,240,2011-10-30 10:46:00
6:51 AM,28.9,28.0,96,30.28,0.2,Calm,Calm,-,N/A,Fog,Light Freezing Fog,0,2011-10-30 10:51:00
7:51 AM,28.9,28.0,96,30.30,0.2,Calm,Calm,-,N/A,Fog,Light Freezing Fog,0,2011-10-30 11:51:00
8:51 AM,30.0,28.9,96,30.33,0.2,Calm,Calm,-,N/A,Fog,Light Freezing Fog,0,2011-10-30 12:51:00
9:51 AM,32.0,30.9,96,30.35,0.2,Calm,Calm,-,N/A,Fog,Fog,0,2011-10-30 13:51:00
10:51 AM,33.1,33.1,100,30.36,0.5,Calm,Calm,-,N/A,Fog,Fog,0,2011-10-30 14:51:00
11:04 AM,35.6,33.8,93,30.29,1.2,Calm,Calm,-,N/A,,Overcast,0,2011-10-30 15:04:00
11:13 AM,35.6,33.8,93,30.29,3.0,Calm,Calm,-,N/A,,Overcast,0,2011-10-30 15:13:00
11:41 AM,39.2,35.6,87,30.29,10.0,Calm,Calm,-,N/A,,Partly Cloudy,0,2011-10-30 15:41:00
11:51 AM,39.9,36.0,86,30.35,10.0,Calm,Calm,-,N/A,,Clear,0,2011-10-30 15:51:00
12:51 PM,46.0,34.0,63,30.33,10.0,Calm,Calm,-,N/A,,Clear,0,2011-10-30 16:51:00
1:51 PM,46.9,33.1,59,30.30,10.0,Calm,Calm,-,N/A,,Clear,0,2011-10-30 17:51:00
2:51 PM,48.9,32.0,52,30.28,10.0,Variable,3.5,-,N/A,,Clear,0,2011-10-30 18:51:00
3:51 PM,51.1,30.0,44,30.27,10.0,NW,3.5,-,N/A,,Partly Cloudy,320,2011-10-30 19:51:00
4:51 PM,48.9,28.9,46,30.28,10.0,Calm,Calm,-,N/A,,Clear,0,2011-10-30 20:51:00
5:51 PM,45.0,34.0,65,30.27,10.0,Calm,Calm,-,N/A,,Clear,0,2011-10-30 21:51:00
6:51 PM,37.0,33.1,86,30.30,10.0,Calm,Calm,-,N/A,,Clear,0,2011-10-30 22:51:00
7:51 PM,34.0,32.0,92,30.31,10.0,Calm,Calm,-,N/A,,Clear,0,2011-10-30 23:51:00
8:51 PM,32.0,30.0,92,30.32,10.0,Calm,Calm,-,N/A,,Clear,0,2011-10-31 00:51:00
9:51 PM,30.9,30.0,96,30.32,9.0,Calm,Calm,-,N/A,,Clear,0,2011-10-31 01:51:00
10:51 PM,30.0,30.0,100,30.33,7.0,Calm,Calm,-,N/A,,Clear,0,2011-10-31 02:51:00
11:51 PM,30.0,28.9,96,30.32,7.0,Calm,Calm,-,N/A,,Clear,0,2011-10-31 03:51:00